Time,TemperatureF,DewpointF,PressureIn,WindDirection,WindDirectionDegrees,WindSpeedMPH,WindSpeedGustMPH,Humidity,HourlyPrecipIn,Conditions,Clouds,dailyrainin,SoftwareType,DateUTC
2013-04-12 00:00:00,40.5,33.2,24.92,NNE,30,0.0,2.2,75,0.00,,---,0.00,VWS V14.01,2013-04-12 07:00:00,
2013-04-12 00:20:00,39.7,32.1,24.92,NNE,30,0.0,0.0,74,0.00,,---,0.00,VWS V14.01,2013-04-12 07:20:00,
2013-04-12 00:40:00,39.0,32.4,24.92,NNE,30,0.0,0.0,77,0.00,,---,0.00,VWS V14.01,2013-04-12 07:40:00,
2013-04-12 01:00:00,37.8,31.2,24.92,NNE,30,0.0,0.0,77,0.00,,---,0.00,VWS V14.01,2013-04-12 08:00:00,
2013-04-12 01:20:00,38.5,32.5,24.92,NNE,30,0.0,0.0,79,0.00,,---,0.00,VWS V14.01,2013-04-12 08:20:00,
2013-04-12 01:40:00,38.7,31.1,24.92,North,8,0.0,0.0,74,0.00,,---,0.00,VWS V14.01,2013-04-12 08:40:00,
2013-04-12 02:00:00,37.9,30.7,24.92,North,8,2.7,2.7,75,0.00,,---,0.00,VWS V14.01,2013-04-12 09:00:00,
2013-04-12 02:20:00,36.5,28.4,24.92,North,8,0.0,3.1,72,0.00,,---,0.00,VWS V14.01,2013-04-12 09:20:00,
2013-04-12 02:40:00,36.7,29.8,24.92,North,8,0.0,0.0,76,0.00,,---,0.00,VWS V14.01,2013-04-12 09:40:00,
2013-04-12 03:00:00,36.5,29.7,24.92,North,8,0.0,0.0,76,0.00,,---,0.00,VWS V14.01,2013-04-12 10:00:00,
2013-04-12 03:20:00,36.9,30.0,24.92,North,8,0.0,0.0,76,0.00,,---,0.00,VWS V14.01,2013-04-12 10:20:00,
2013-04-12 03:40:00,36.9,29.7,24.89,North,8,0.0,0.0,75,0.00,,---,0.00,VWS V14.01,2013-04-12 10:40:00,
2013-04-12 04:00:00,38.5,28.5,24.89,North,8,0.0,0.0,67,0.00,,---,0.00,VWS V14.01,2013-04-12 11:00:00,
2013-04-12 04:20:00,40.5,29.6,24.89,North,8,2.7,2.7,65,0.00,,---,0.00,VWS V14.01,2013-04-12 11:20:00,
2013-04-12 04:40:00,40.6,29.0,24.89,North,8,2.7,3.1,63,0.00,,---,0.00,VWS V14.01,2013-04-12 11:40:00,
2013-04-12 05:00:00,42.3,26.4,24.89,North,8,2.7,3.1,53,0.00,,---,0.00,VWS V14.01,2013-04-12 12:00:00,
2013-04-12 05:20:00,46.6,27.5,24.89,North,353,2.7,3.1,47,0.00,,---,0.00,VWS V14.01,2013-04-12 12:20:00,
2013-04-12 05:40:00,47.3,28.1,24.89,North,357,3.6,4.0,47,0.00,,---,0.00,VWS V14.01,2013-04-12 12:40:00,
2013-04-12 06:00:00,44.8,25.8,24.89,North,357,0.0,3.6,47,0.00,,---,0.00,VWS V14.01,2013-04-12 13:00:00,
2013-04-12 06:20:00,46.0,27.0,24.92,North,0,3.1,3.6,47,0.00,,---,0.00,VWS V14.01,2013-04-12 13:20:00,
2013-04-12 06:40:00,46.6,27.5,24.92,North,357,3.6,4.0,47,0.00,,---,0.00,VWS V14.01,2013-04-12 13:40:00,
2013-04-12 07:00:00,47.5,28.3,24.92,North,357,2.7,4.9,47,0.00,,---,0.00,VWS V14.01,2013-04-12 14:00:00,
2013-04-12 07:20:00,47.5,28.3,24.92,North,3,0.0,3.6,47,0.00,,---,0.00,VWS V14.01,2013-04-12 14:20:00,
2013-04-12 07:40:00,49.8,29.9,24.92,NNW,342,0.0,0.0,46,0.00,,---,0.00,VWS V14.01,2013-04-12 14:40:00,
2013-04-12 08:00:00,59.4,36.3,24.92,North,6,4.9,6.3,42,0.00,,---,0.00,VWS V14.01,2013-04-12 15:00:00,
2013-04-12 08:20:00,60.4,37.3,24.92,NNE,13,2.2,6.3,42,0.00,,---,0.00,VWS V14.01,2013-04-12 15:20:00,
2013-04-12 08:40:00,60.4,37.3,24.95,ESE,110,0.0,6.3,42,0.00,,---,0.00,VWS V14.01,2013-04-12 15:40:00,
2013-04-12 09:00:00,61.7,37.8,24.95,NNE,16,4.9,8.7,41,0.00,,---,0.00,VWS V14.01,2013-04-12 16:00:00,
2013-04-12 09:20:00,64.8,39.9,24.95,NNE,23,3.1,6.3,40,0.00,,---,0.00,VWS V14.01,2013-04-12 16:20:00,
2013-04-12 09:40:00,65.7,40.7,24.95,North,7,5.4,8.1,40,0.00,,---,0.00,VWS V14.01,2013-04-12 16:40:00,
2013-04-12 10:00:00,68.5,43.3,24.95,North,357,2.7,8.7,40,0.00,,---,0.00,VWS V14.01,2013-04-12 17:00:00,
2013-04-12 10:20:00,71.6,46.7,24.98,North,350,3.6,10.1,41,0.00,,---,0.00,VWS V14.01,2013-04-12 17:20:00,
2013-04-12 10:40:00,72.5,47.5,24.98,North,353,8.7,10.1,41,0.00,,---,0.00,VWS V14.01,2013-04-12 17:40:00,
2013-04-12 11:00:00,73.2,48.1,24.98,NE,54,3.1,10.5,41,0.00,,---,0.00,VWS V14.01,2013-04-12 18:00:00,
2013-04-12 11:20:00,72.9,47.8,24.98,North,8,3.6,8.7,41,0.00,,---,0.00,VWS V14.01,2013-04-12 18:20:00,
2013-04-12 12:40:00,72.0,47.0,24.98,ENE,72,5.4,10.1,41,0.00,,---,0.00,VWS V14.01,2013-04-12 19:40:00,
2013-04-12 13:00:00,71.4,47.2,24.98,North,353,5.4,13.2,42,0.00,,---,0.00,VWS V14.01,2013-04-12 20:00:00,
2013-04-12 13:20:00,75.4,49.4,24.98,North,3,7.6,13.2,40,0.00,,---,0.00,VWS V14.01,2013-04-12 20:20:00,
2013-04-12 13:40:00,81.0,52.3,24.98,North,353,6.3,12.3,37,0.00,,---,0.00,VWS V14.01,2013-04-12 20:40:00,
2013-04-12 14:00:00,77.2,49.6,24.98,North,8,7.2,8.3,38,0.00,,---,0.00,VWS V14.01,2013-04-12 21:00:00,
2013-04-12 14:20:00,76.3,48.8,24.98,NNE,13,7.6,10.1,38,0.00,,---,0.00,VWS V14.01,2013-04-12 21:20:00,
2013-04-12 14:40:00,78.3,50.6,24.98,North,0,10.1,11.0,38,0.00,,---,0.00,VWS V14.01,2013-04-12 21:40:00,
2013-04-12 15:00:00,79.2,50.7,24.98,North,9,5.8,10.1,37,0.00,,---,0.00,VWS V14.01,2013-04-12 22:00:00,
2013-04-12 15:20:00,82.4,52.8,24.98,SW,226,3.6,8.7,36,0.00,,---,0.00,VWS V14.01,2013-04-12 22:20:00,
2013-04-12 15:40:00,81.0,52.3,24.95,East,101,2.7,10.1,37,0.00,,---,0.00,VWS V14.01,2013-04-12 22:40:00,
2013-04-12 16:00:00,82.9,53.3,24.95,SE,134,5.8,8.3,36,0.00,,---,0.00,VWS V14.01,2013-04-12 23:00:00,
2013-04-12 16:20:00,72.7,46.3,24.95,South,188,6.3,11.9,39,0.00,,---,0.00,VWS V14.01,2013-04-12 23:20:00,
2013-04-12 16:40:00,74.1,46.9,24.95,South,178,3.6,13.2,38,0.00,,---,0.00,VWS V14.01,2013-04-12 23:40:00,
2013-04-12 17:00:00,72.3,46.0,24.95,SSE,154,5.4,11.0,39,0.00,,---,0.00,VWS V14.01,2013-04-13 00:00:00,
2013-04-12 17:20:00,70.9,44.7,24.95,South,190,8.3,10.5,39,0.00,,---,0.00,VWS V14.01,2013-04-13 00:20:00,
2013-04-12 17:40:00,69.4,44.1,24.95,SSE,158,4.9,9.6,40,0.00,,---,0.00,VWS V14.01,2013-04-13 00:40:00,
2013-04-12 18:00:00,64.6,39.7,24.95,SW,221,4.9,8.1,40,0.00,,---,0.00,VWS V14.01,2013-04-13 01:00:00,
2013-04-12 18:20:00,63.7,39.6,24.95,SSW,192,4.0,8.7,41,0.00,,---,0.00,VWS V14.01,2013-04-13 01:20:00,
2013-04-12 18:40:00,63.5,40.6,24.98,SSW,203,7.6,8.7,43,0.00,,---,0.00,VWS V14.01,2013-04-13 01:40:00,
2013-04-12 19:00:00,61.9,39.8,24.98,SSW,209,3.6,12.3,44,0.00,,---,0.00,VWS V14.01,2013-04-13 02:00:00,
2013-04-12 19:20:00,60.3,41.0,24.98,South,187,3.6,7.6,49,0.00,,---,0.00,VWS V14.01,2013-04-13 02:20:00,
2013-04-12 19:40:00,57.9,41.9,24.98,SSW,209,0.0,4.5,55,0.00,,---,0.00,VWS V14.01,2013-04-13 02:40:00,
2013-04-12 20:00:00,55.8,40.3,24.98,SSW,192,0.0,3.1,56,0.00,,---,0.00,VWS V14.01,2013-04-13 03:00:00,
2013-04-12 20:20:00,55.8,40.8,25.01,North,6,2.7,3.6,57,0.00,,---,0.00,VWS V14.01,2013-04-13 03:20:00,
2013-04-12 20:40:00,54.0,40.0,25.01,NNW,346,0.0,4.0,59,0.00,,---,0.00,VWS V14.01,2013-04-13 03:40:00,
2013-04-12 21:00:00,52.0,41.0,25.01,North,0,2.7,2.7,66,0.00,,---,0.00,VWS V14.01,2013-04-13 04:00:00,
2013-04-12 21:20:00,51.1,40.5,25.01,North,353,0.0,2.7,67,0.00,,---,0.00,VWS V14.01,2013-04-13 04:20:00,
2013-04-12 21:40:00,49.6,39.9,25.01,North,353,0.0,0.0,69,0.00,,---,0.00,VWS V14.01,2013-04-13 04:40:00,
2013-04-12 22:00:00,48.2,39.6,25.01,North,353,0.0,0.0,72,0.00,,---,0.00,VWS V14.01,2013-04-13 05:00:00,
2013-04-12 22:20:00,47.1,38.9,25.01,North,8,0.0,2.7,73,0.00,,---,0.00,VWS V14.01,2013-04-13 05:20:00,
2013-04-12 22:40:00,45.9,38.4,25.01,North,8,0.0,0.0,75,0.00,,---,0.00,VWS V14.01,2013-04-13 05:40:00,
2013-04-12 23:00:00,45.5,39.0,25.04,North,8,0.0,0.0,78,0.00,,---,0.00,VWS V14.01,2013-04-13 06:00:00,
2013-04-12 23:20:00,44.8,38.7,25.01,North,8,0.0,0.0,79,0.00,,---,0.00,VWS V14.01,2013-04-13 06:20:00,
2013-04-12 23:40:00,43.7,37.6,25.01,North,8,0.0,0.0,79,0.00,,---,0.00,VWS V14.01,2013-04-13 06:40:00,